Home   Weather   Río Gallegos   Past weeks
Flag for Argentina

Past Weather in Río Gallegos, Santa Cruz, Argentina — Yesterday and Last 2 Weeks

Now
55 °F

Sunny.


Feels Like: 54 °F
Forecast: 51 / 35 °F
Wind: 7 mph from Southeast

Location: Rio Gallegos Aerodrome

Current Time: Oct 15, 2019 at 1:53:10 pm

Latest Report: Oct 15, 2019 at 1:00 pm


Visibility: 10 mi

Pressure: 30.21 "Hg

Humidity: 44%

Dew Point: 34 °F

Location of Río GallegosLocation

Past Weather in Río Gallegos — Graph

°F

Río Gallegos Temperature Yesterday

Maximum temperature yesterday: 66 °F (at 4:00 pm)
Minimum temperature yesterday: 32 °F (at 1:00 am)
Average temperature yesterday: 48 °F

High & Low Weather Summary for the Past Weeks

 TemperatureHumidityPressure
High66 °F (Oct 14, 4:00 pm)100% (Oct 2, 5:00 am)30.45 "Hg (Oct 2, 5:00 am)
Low28 °F (Oct 11, 6:00 am)22% (Oct 8, 5:00 pm)29.09 "Hg (Oct 9, 10:00 pm)
Average43 °F57%29.74 "Hg
* Reported Sep 30 12:00 pm — Oct 15 12:00 pm, Río Gallegos. Weather by CustomWeather, © 2019

Note: Actual official high and low records may vary slightly from our data, if they occured in-between our weather recording intervals... More about our weather records

Advertising

Río Gallegos Weather History for the Previous 24 Hours

Scroll right to see more
 ConditionsComfort  
Time TempWeatherWind HumidityBarometerVisibility
12:00 pm
Tue, Oct 15
54 °FSunny.5 mph51%30.24 "Hg10 mi
11:00 am50 °FSunny.5 mph62%30.24 "Hg10 mi
10:00 am46 °FSunny.No wind66%30.24 "Hg10 mi
9:00 am39 °FSunny.No wind81%30.27 "Hg10 mi
8:00 am34 °FSunny.No wind87%30.27 "Hg10 mi
7:00 am30 °FSunny.5 mph86%30.27 "Hg10 mi
6:00 am30 °FPassing clouds.5 mph93%30.27 "HgN/A
5:00 am30 °FClear.3 mph93%30.27 "Hg10 mi
4:00 am32 °FClear.3 mph93%30.30 "Hg10 mi
3:00 am36 °FPassing clouds.3 mph87%30.30 "HgN/A
2:00 am37 °FClear.6 mph81%30.30 "Hg10 mi
1:00 am36 °FPassing clouds.3 mph87%30.30 "HgN/A
12:00 am43 °FPassing clouds.1 mph76%30.30 "HgN/A
11:00 pm
Mon, Oct 14
45 °FPassing clouds.7 mph71%30.30 "HgN/A
10:00 pm48 °FClear.6 mph66%30.30 "Hg10 mi
9:00 pm54 °FClear.6 mph54%30.30 "Hg10 mi
8:00 pm59 °FSunny.3 mph45%30.30 "Hg10 mi
7:00 pm64 °FSunny.8 mph30%30.30 "Hg10 mi
6:00 pm64 °FSunny.10 mph26%30.30 "Hg10 mi
5:00 pm66 °FSunny.13 mph22%30.30 "Hg10 mi
4:00 pm66 °FSunny.13 mph22%30.30 "Hg10 mi
3:00 pm64 °FSunny.16 mph24%30.30 "Hg10 mi
2:00 pm63 °FSunny.13 mph27%30.33 "Hg10 mi
1:00 pm57 °FSunny.13 mph36%30.36 "Hg10 mi
Weather by CustomWeather, © 2019

See weather overview